Year,Month,Day,Hour,Minute,Value (Times are PST for temperature in C)
2008,05,16,00,00,11.10
2008,05,16,00,01,11.10
2008,05,16,00,02,11.10
2008,05,16,00,03,11.00
2008,05,16,00,04,11.00
2008,05,16,00,05,11.00
2008,05,16,00,06,11.00
2008,05,16,00,07,11.00
2008,05,16,00,08,11.00
2008,05,16,00,09,11.00
2008,05,16,00,10,11.00
2008,05,16,00,11,11.00
2008,05,16,00,12,11.00
2008,05,16,00,13,11.00
2008,05,16,00,14,10.90
2008,05,16,00,15,10.90
2008,05,16,00,16,10.90
2008,05,16,00,17,10.90
2008,05,16,00,18,10.80
2008,05,16,00,19,10.80
2008,05,16,00,20,10.80
2008,05,16,00,21,10.80
2008,05,16,00,22,10.80
2008,05,16,00,23,10.80
2008,05,16,00,24,10.80
2008,05,16,00,25,10.70
2008,05,16,00,26,10.70
2008,05,16,00,27,10.70
2008,05,16,00,28,10.70
2008,05,16,00,29,10.70
2008,05,16,00,30,10.60
2008,05,16,00,31,10.60
2008,05,16,00,32,10.60
2008,05,16,00,33,10.60
2008,05,16,00,34,10.60
2008,05,16,00,35,10.60
2008,05,16,00,36,10.60
2008,05,16,00,37,10.50
2008,05,16,00,38,10.50
2008,05,16,00,39,10.50
2008,05,16,00,40,10.40
2008,05,16,00,41,10.40
2008,05,16,00,42,10.40
2008,05,16,00,43,10.40
2008,05,16,00,44,10.40
2008,05,16,00,45,10.40
2008,05,16,00,46,10.40
2008,05,16,00,47,10.40
2008,05,16,00,48,10.40
2008,05,16,00,49,10.30
2008,05,16,00,50,10.30
2008,05,16,00,51,10.30
2008,05,16,00,52,10.30
2008,05,16,00,53,10.30
2008,05,16,00,54,10.30
2008,05,16,00,55,10.30
2008,05,16,00,56,10.20
2008,05,16,00,57,10.20
2008,05,16,00,58,10.30
2008,05,16,00,59,10.20
2008,05,16,01,00,10.20
2008,05,16,01,01,10.20
2008,05,16,01,02,10.10
2008,05,16,01,03,10.10
2008,05,16,01,04,10.10
2008,05,16,01,05,10.10
2008,05,16,01,06,10.20
2008,05,16,01,07,10.20
2008,05,16,01,08,10.20
2008,05,16,01,09,10.20
2008,05,16,01,10,10.10
2008,05,16,01,11,10.10
2008,05,16,01,12,10.10
2008,05,16,01,13,10.10
2008,05,16,01,14,10.00
2008,05,16,01,15,10.00
2008,05,16,01,16,9.90
2008,05,16,01,17,9.90
2008,05,16,01,18,9.90
2008,05,16,01,19,9.90
2008,05,16,01,20,9.90
2008,05,16,01,21,10.00
2008,05,16,01,22,10.00
2008,05,16,01,23,10.00
2008,05,16,01,24,10.00
2008,05,16,01,25,9.90
2008,05,16,01,26,9.90
2008,05,16,01,27,9.90
2008,05,16,01,28,9.90
2008,05,16,01,29,9.80
2008,05,16,01,30,9.80
2008,05,16,01,31,9.80
2008,05,16,01,32,9.80
2008,05,16,01,33,9.70
2008,05,16,01,34,9.70
2008,05,16,01,35,9.70
2008,05,16,01,36,9.70
2008,05,16,01,37,9.70
2008,05,16,01,38,9.70
2008,05,16,01,39,9.60
2008,05,16,01,40,9.70
2008,05,16,01,41,9.70
2008,05,16,01,42,9.70
2008,05,16,01,43,9.70
2008,05,16,01,44,9.70
2008,05,16,01,45,9.70
2008,05,16,01,46,9.70
2008,05,16,01,47,9.70
2008,05,16,01,48,9.70
2008,05,16,01,49,9.70
2008,05,16,01,50,9.70
2008,05,16,01,51,9.60
2008,05,16,01,52,9.60
2008,05,16,01,53,9.60
2008,05,16,01,54,9.60
2008,05,16,01,55,9.60
2008,05,16,01,56,9.60
2008,05,16,01,57,9.60
2008,05,16,01,58,9.50
2008,05,16,01,59,9.50
2008,05,16,02,00,9.50
2008,05,16,02,01,9.50
2008,05,16,02,02,9.50
2008,05,16,02,03,9.50
2008,05,16,02,04,9.50
2008,05,16,02,05,9.50
2008,05,16,02,06,9.60
2008,05,16,02,07,9.60
2008,05,16,02,08,9.60
2008,05,16,02,09,9.50
2008,05,16,02,10,9.50
2008,05,16,02,11,9.40
2008,05,16,02,12,9.40
2008,05,16,02,13,9.40
2008,05,16,02,14,9.40
2008,05,16,02,15,9.40
2008,05,16,02,16,9.40
2008,05,16,02,17,9.30
2008,05,16,02,18,9.30
2008,05,16,02,19,9.30
2008,05,16,02,20,9.30
2008,05,16,02,21,9.30
2008,05,16,02,22,9.30
2008,05,16,02,23,9.20
2008,05,16,02,24,9.20
2008,05,16,02,25,9.20
2008,05,16,02,26,9.20
2008,05,16,02,27,9.20
2008,05,16,02,28,9.10
2008,05,16,02,29,9.10
2008,05,16,02,30,9.10
2008,05,16,02,31,9.10
2008,05,16,02,32,9.10
2008,05,16,02,33,9.10
2008,05,16,02,34,9.10
2008,05,16,02,35,9.10
2008,05,16,02,36,9.00
2008,05,16,02,37,9.00
2008,05,16,02,38,9.00
2008,05,16,02,39,9.00
2008,05,16,02,40,9.00
2008,05,16,02,41,9.00
2008,05,16,02,42,9.00
2008,05,16,02,43,9.00
2008,05,16,02,44,8.90
2008,05,16,02,45,8.90
2008,05,16,02,46,8.90
2008,05,16,02,47,8.90
2008,05,16,02,48,8.90
2008,05,16,02,49,8.90
2008,05,16,02,50,8.90
2008,05,16,02,51,8.90
2008,05,16,02,52,8.90
2008,05,16,02,53,8.90
2008,05,16,02,54,8.80
2008,05,16,02,55,8.80
2008,05,16,02,56,8.80
2008,05,16,02,57,8.80
2008,05,16,02,58,8.80
2008,05,16,02,59,8.80
2008,05,16,03,00,8.80
2008,05,16,03,01,8.80
2008,05,16,03,02,8.80
2008,05,16,03,03,8.80
2008,05,16,03,04,8.80
2008,05,16,03,05,8.80
2008,05,16,03,06,8.80
2008,05,16,03,07,8.80
2008,05,16,03,08,8.80
2008,05,16,03,09,8.70
2008,05,16,03,10,8.70
2008,05,16,03,11,8.70
2008,05,16,03,12,8.70
2008,05,16,03,13,8.70
2008,05,16,03,14,8.70
2008,05,16,03,15,8.70
2008,05,16,03,16,8.70
2008,05,16,03,17,8.70
2008,05,16,03,18,8.70
2008,05,16,03,19,8.70
2008,05,16,03,20,8.60
2008,05,16,03,21,8.60
2008,05,16,03,22,8.60
2008,05,16,03,23,8.60
2008,05,16,03,24,8.60
2008,05,16,03,25,8.60
2008,05,16,03,26,8.60
2008,05,16,03,27,8.60
2008,05,16,03,28,8.60
2008,05,16,03,29,8.60
2008,05,16,03,30,8.60
2008,05,16,03,31,8.60
2008,05,16,03,32,8.60
2008,05,16,03,33,8.60
2008,05,16,03,34,8.60
2008,05,16,03,35,8.60
2008,05,16,03,36,8.60
2008,05,16,03,37,8.60
2008,05,16,03,38,8.60
2008,05,16,03,39,8.60
2008,05,16,03,40,8.60
2008,05,16,03,41,8.60
2008,05,16,03,42,8.50
2008,05,16,03,43,8.50
2008,05,16,03,44,8.50
2008,05,16,03,45,8.50
2008,05,16,03,46,8.50
2008,05,16,03,47,8.50
2008,05,16,03,48,8.50
2008,05,16,03,49,8.50
2008,05,16,03,50,8.40
2008,05,16,03,51,8.40
2008,05,16,03,52,8.40
2008,05,16,03,53,8.40
2008,05,16,03,54,8.40
2008,05,16,03,55,8.40
2008,05,16,03,56,8.30
2008,05,16,03,57,8.30
2008,05,16,03,58,8.30
2008,05,16,03,59,8.30
2008,05,16,04,00,8.30
2008,05,16,04,01,8.30
2008,05,16,04,02,8.30
2008,05,16,04,03,8.30
2008,05,16,04,04,8.30
2008,05,16,04,05,8.30
2008,05,16,04,06,8.30
2008,05,16,04,07,8.30
2008,05,16,04,08,8.30
2008,05,16,04,09,8.30
2008,05,16,04,10,8.30
2008,05,16,04,11,8.30
2008,05,16,04,12,8.30
2008,05,16,04,13,8.30
2008,05,16,04,14,8.30
2008,05,16,04,15,8.20
2008,05,16,04,16,8.20
2008,05,16,04,17,8.20
2008,05,16,04,18,8.20
2008,05,16,04,19,8.20
2008,05,16,04,20,8.20
2008,05,16,04,21,8.20
2008,05,16,04,22,8.20
2008,05,16,04,23,8.20
2008,05,16,04,24,8.20
2008,05,16,04,25,8.20
2008,05,16,04,26,8.20
2008,05,16,04,27,8.20
2008,05,16,04,28,8.20
2008,05,16,04,29,8.20
2008,05,16,04,30,8.20
2008,05,16,04,31,8.20
2008,05,16,04,32,8.20
2008,05,16,04,33,8.10
2008,05,16,04,34,8.10
2008,05,16,04,35,8.10
2008,05,16,04,36,8.10
2008,05,16,04,37,8.10
2008,05,16,04,38,8.00
2008,05,16,04,39,8.00
2008,05,16,04,40,8.00
2008,05,16,04,41,8.00
2008,05,16,04,42,8.00
2008,05,16,04,43,8.00
2008,05,16,04,44,8.00
2008,05,16,04,45,7.90
2008,05,16,04,46,7.90
2008,05,16,04,47,7.90
2008,05,16,04,48,8.00
2008,05,16,04,49,7.90
2008,05,16,04,50,8.00
2008,05,16,04,51,8.00
2008,05,16,04,52,7.90
2008,05,16,04,53,7.90
2008,05,16,04,54,7.90
2008,05,16,04,55,7.90
2008,05,16,04,56,7.90
2008,05,16,04,57,7.90
2008,05,16,04,58,7.90
2008,05,16,04,59,7.90
2008,05,16,05,00,7.90
2008,05,16,05,01,7.90
2008,05,16,05,02,7.90
2008,05,16,05,03,7.90
2008,05,16,05,04,7.90
2008,05,16,05,05,7.90
2008,05,16,05,06,7.90
2008,05,16,05,07,7.90
2008,05,16,05,08,7.90
2008,05,16,05,09,7.80
2008,05,16,05,10,7.80
2008,05,16,05,11,7.80
2008,05,16,05,12,7.80
2008,05,16,05,13,7.90
2008,05,16,05,14,7.90
2008,05,16,05,15,7.90
2008,05,16,05,16,7.90
2008,05,16,05,17,7.90
2008,05,16,05,18,7.90
2008,05,16,05,19,7.90
2008,05,16,05,20,7.90
2008,05,16,05,21,7.90
2008,05,16,05,22,7.90
2008,05,16,05,23,7.90
2008,05,16,05,24,7.80
2008,05,16,05,25,7.80
2008,05,16,05,26,7.80
2008,05,16,05,27,7.80
2008,05,16,05,28,7.80
2008,05,16,05,29,7.70
2008,05,16,05,30,7.70
2008,05,16,05,31,7.80
2008,05,16,05,32,7.80
2008,05,16,05,33,7.80
2008,05,16,05,34,7.80
2008,05,16,05,35,7.80
2008,05,16,05,36,7.80
2008,05,16,05,37,7.80
2008,05,16,05,38,7.80
2008,05,16,05,39,7.80
2008,05,16,05,40,7.80
2008,05,16,05,41,7.80
2008,05,16,05,42,7.80
2008,05,16,05,43,7.80
2008,05,16,05,44,7.80
2008,05,16,05,45,7.80
2008,05,16,05,46,7.70
2008,05,16,05,47,7.70
2008,05,16,05,48,7.70
2008,05,16,05,49,7.70
2008,05,16,05,50,7.70
2008,05,16,05,51,7.70
2008,05,16,05,52,7.70
2008,05,16,05,53,7.70
2008,05,16,05,54,7.70
2008,05,16,05,55,7.70
2008,05,16,05,56,7.70
2008,05,16,05,57,7.70
2008,05,16,05,58,7.70
2008,05,16,05,59,7.70
2008,05,16,06,00,7.70
2008,05,16,06,01,7.70
2008,05,16,06,02,7.70
2008,05,16,06,03,7.80
2008,05,16,06,04,7.80
2008,05,16,06,05,7.80
2008,05,16,06,06,7.80
2008,05,16,06,07,7.80
2008,05,16,06,08,7.80
2008,05,16,06,09,7.80
2008,05,16,06,10,7.80
2008,05,16,06,11,7.80
2008,05,16,06,12,7.80
2008,05,16,06,13,7.80
2008,05,16,06,14,7.80
2008,05,16,06,15,7.80
2008,05,16,06,16,7.80
2008,05,16,06,17,7.80
2008,05,16,06,18,7.80
2008,05,16,06,19,7.80
2008,05,16,06,20,7.80
2008,05,16,06,21,7.80
2008,05,16,06,22,7.90
2008,05,16,06,23,7.90
2008,05,16,06,24,7.90
2008,05,16,06,25,7.90
2008,05,16,06,26,7.90
2008,05,16,06,27,7.90
2008,05,16,06,28,7.90
2008,05,16,06,29,7.90
2008,05,16,06,30,7.90
2008,05,16,06,31,8.00
2008,05,16,06,32,8.00
2008,05,16,06,33,8.00
2008,05,16,06,34,8.00
2008,05,16,06,35,8.10
2008,05,16,06,36,8.10
2008,05,16,06,37,8.10
2008,05,16,06,38,8.10
2008,05,16,06,39,8.10
2008,05,16,06,40,8.10
2008,05,16,06,41,8.10
2008,05,16,06,42,8.20
2008,05,16,06,43,8.20
2008,05,16,06,44,8.20
2008,05,16,06,45,8.20
2008,05,16,06,46,8.20
2008,05,16,06,47,8.30
2008,05,16,06,48,8.30
2008,05,16,06,49,8.30
2008,05,16,06,50,8.30
2008,05,16,06,51,8.30
2008,05,16,06,52,8.30
2008,05,16,06,53,8.30
2008,05,16,06,54,8.30
2008,05,16,06,55,8.30
2008,05,16,06,56,8.30
2008,05,16,06,57,8.30
2008,05,16,06,58,8.30
2008,05,16,06,59,8.40
2008,05,16,07,00,8.40
2008,05,16,07,01,8.40
2008,05,16,07,02,8.40
2008,05,16,07,03,8.40
2008,05,16,07,04,8.40
2008,05,16,07,05,8.50
2008,05,16,07,06,8.50
2008,05,16,07,07,8.60
2008,05,16,07,08,8.60
2008,05,16,07,09,8.60
2008,05,16,07,10,8.60
2008,05,16,07,11,8.70
2008,05,16,07,12,8.70
2008,05,16,07,13,8.70
2008,05,16,07,14,8.80
2008,05,16,07,15,8.80
2008,05,16,07,16,8.80
2008,05,16,07,17,8.80
2008,05,16,07,18,8.80
2008,05,16,07,19,8.90
2008,05,16,07,20,8.90
2008,05,16,07,21,8.90
2008,05,16,07,22,9.00
2008,05,16,07,23,9.00
2008,05,16,07,24,9.10
2008,05,16,07,25,9.10
2008,05,16,07,26,9.20
2008,05,16,07,27,9.20
2008,05,16,07,28,9.20
2008,05,16,07,29,9.30
2008,05,16,07,30,9.30
2008,05,16,07,31,9.30
2008,05,16,07,32,9.30
2008,05,16,07,33,9.40
2008,05,16,07,34,9.40
2008,05,16,07,35,9.40
2008,05,16,07,36,9.40
2008,05,16,07,37,9.50
2008,05,16,07,38,9.60
2008,05,16,07,39,9.60
2008,05,16,07,40,9.60
2008,05,16,07,41,9.60
2008,05,16,07,42,9.70
2008,05,16,07,43,9.70
2008,05,16,07,44,9.70
2008,05,16,07,45,9.70
2008,05,16,07,46,9.80
2008,05,16,07,47,9.80
2008,05,16,07,48,9.80
2008,05,16,07,49,9.90
2008,05,16,07,50,9.90
2008,05,16,07,51,10.00
2008,05,16,07,52,10.00
2008,05,16,07,53,10.10
2008,05,16,07,54,10.10
2008,05,16,07,55,10.20
2008,05,16,07,56,10.20
2008,05,16,07,57,10.30
2008,05,16,07,58,10.30
2008,05,16,07,59,10.40
2008,05,16,08,00,10.40
2008,05,16,08,01,10.50
2008,05,16,08,02,10.50
2008,05,16,08,03,10.60
2008,05,16,08,04,10.60
2008,05,16,08,05,10.70
2008,05,16,08,06,10.70
2008,05,16,08,07,10.80
2008,05,16,08,08,10.80
2008,05,16,08,09,10.80
2008,05,16,08,10,10.80
2008,05,16,08,11,10.90
2008,05,16,08,12,10.90
2008,05,16,08,13,11.00
2008,05,16,08,14,11.10
2008,05,16,08,15,11.10
2008,05,16,08,16,11.20
2008,05,16,08,17,11.20
2008,05,16,08,18,11.30
2008,05,16,08,19,11.40
2008,05,16,08,20,11.50
2008,05,16,08,21,11.60
2008,05,16,08,22,11.70
2008,05,16,08,23,11.70
2008,05,16,08,24,11.80
2008,05,16,08,25,11.90
2008,05,16,08,26,12.00
2008,05,16,08,27,12.10
2008,05,16,08,28,12.20
2008,05,16,08,29,12.30
2008,05,16,08,30,12.40
2008,05,16,08,31,12.50
2008,05,16,08,32,12.60
2008,05,16,08,33,12.60
2008,05,16,08,34,12.70
2008,05,16,08,35,12.80
2008,05,16,08,36,12.80
2008,05,16,08,37,12.90
2008,05,16,08,38,13.00
2008,05,16,08,39,13.10
2008,05,16,08,40,13.10
2008,05,16,08,41,13.20
2008,05,16,08,42,13.30
2008,05,16,08,43,13.40
2008,05,16,08,44,13.50
2008,05,16,08,45,13.60
2008,05,16,08,46,13.70
2008,05,16,08,47,13.70
2008,05,16,08,48,13.80
2008,05,16,08,49,13.90
2008,05,16,08,50,13.90
2008,05,16,08,51,14.00
2008,05,16,08,52,14.10
2008,05,16,08,53,14.20
2008,05,16,08,54,14.30
2008,05,16,08,55,14.30
2008,05,16,08,56,14.40
2008,05,16,08,57,14.50
2008,05,16,08,58,14.60
2008,05,16,08,59,14.70
2008,05,16,09,00,14.80
2008,05,16,09,01,14.80
2008,05,16,09,02,14.90
2008,05,16,09,03,15.00
2008,05,16,09,04,15.00
2008,05,16,09,05,15.00
2008,05,16,09,06,15.00
2008,05,16,09,07,15.00
2008,05,16,09,08,15.00
2008,05,16,09,09,15.10
2008,05,16,09,10,15.20
2008,05,16,09,11,15.20
2008,05,16,09,12,15.30
2008,05,16,09,13,15.30
2008,05,16,09,14,15.30
2008,05,16,09,15,15.30
2008,05,16,09,16,15.40
2008,05,16,09,17,15.40
2008,05,16,09,18,15.40
2008,05,16,09,19,15.50
2008,05,16,09,20,15.50
2008,05,16,09,21,15.50
2008,05,16,09,22,15.60
2008,05,16,09,23,15.60
2008,05,16,09,24,15.70
2008,05,16,09,25,15.70
2008,05,16,09,26,15.80
2008,05,16,09,27,15.80
2008,05,16,09,28,15.90
2008,05,16,09,29,15.90
2008,05,16,09,30,16.00
2008,05,16,09,31,16.10
2008,05,16,09,32,16.10
2008,05,16,09,33,16.20
2008,05,16,09,34,16.30
2008,05,16,09,35,16.30
2008,05,16,09,36,16.30
2008,05,16,09,37,16.40
2008,05,16,09,38,16.40
2008,05,16,09,39,16.40
2008,05,16,09,40,16.40
2008,05,16,09,41,16.50
2008,05,16,09,42,16.50
2008,05,16,09,43,16.60
2008,05,16,09,44,16.60
2008,05,16,09,45,16.70
2008,05,16,09,46,16.80
2008,05,16,09,47,16.80
2008,05,16,09,48,16.90
2008,05,16,09,49,17.00
2008,05,16,09,50,17.10
2008,05,16,09,51,17.10
2008,05,16,09,52,17.20
2008,05,16,09,53,17.20
2008,05,16,09,54,17.20
2008,05,16,09,55,17.30
2008,05,16,09,56,17.30
2008,05,16,09,57,17.30
2008,05,16,09,58,17.30
2008,05,16,09,59,17.40
2008,05,16,10,00,17.40
2008,05,16,10,01,17.40
2008,05,16,10,02,17.50
2008,05,16,10,03,17.50
2008,05,16,10,04,17.60
2008,05,16,10,05,17.60
2008,05,16,10,06,17.70
2008,05,16,10,07,17.70
2008,05,16,10,08,17.80
2008,05,16,10,09,17.80
2008,05,16,10,10,17.80
2008,05,16,10,11,17.80
2008,05,16,10,12,17.80
2008,05,16,10,13,17.80
2008,05,16,10,14,17.80
2008,05,16,10,15,17.80
2008,05,16,10,16,17.80
2008,05,16,10,17,17.80
2008,05,16,10,18,17.80
2008,05,16,10,19,17.90
2008,05,16,10,20,17.90
2008,05,16,10,21,18.00
2008,05,16,10,22,18.10
2008,05,16,10,23,18.20
2008,05,16,10,24,18.20
2008,05,16,10,25,18.20
2008,05,16,10,26,18.10
2008,05,16,10,27,18.10
2008,05,16,10,28,18.00
2008,05,16,10,29,18.00
2008,05,16,10,30,18.10
2008,05,16,10,31,18.10
2008,05,16,10,32,18.10
2008,05,16,10,33,18.20
2008,05,16,10,34,18.20
2008,05,16,10,35,18.30
2008,05,16,10,36,18.40
2008,05,16,10,37,18.40
2008,05,16,10,38,18.50
2008,05,16,10,39,18.60
2008,05,16,10,40,18.60
2008,05,16,10,41,18.60
2008,05,16,10,42,18.60
2008,05,16,10,43,18.70
2008,05,16,10,44,18.70
2008,05,16,10,45,18.70
2008,05,16,10,46,18.70
2008,05,16,10,47,18.70
2008,05,16,10,48,18.70
2008,05,16,10,49,18.70
2008,05,16,10,50,18.80
2008,05,16,10,51,18.90
2008,05,16,10,52,18.90
2008,05,16,10,53,19.00
2008,05,16,10,54,19.10
2008,05,16,10,55,19.10
2008,05,16,10,56,19.20
2008,05,16,10,57,19.20
2008,05,16,10,58,19.20
2008,05,16,10,59,19.20
2008,05,16,11,00,19.20
2008,05,16,11,01,19.30
2008,05,16,11,02,19.30
2008,05,16,11,03,19.30
2008,05,16,11,04,19.40
2008,05,16,11,05,19.50
2008,05,16,11,06,19.50
2008,05,16,11,07,19.60
2008,05,16,11,08,19.70
2008,05,16,11,09,19.80
2008,05,16,11,10,19.90
2008,05,16,11,11,19.90
2008,05,16,11,12,20.00
2008,05,16,11,13,20.00
2008,05,16,11,14,20.10
2008,05,16,11,15,20.10
2008,05,16,11,16,20.20
2008,05,16,11,17,20.20
2008,05,16,11,18,20.30
2008,05,16,11,19,20.40
2008,05,16,11,20,20.40
2008,05,16,11,21,20.50
2008,05,16,11,22,20.60
2008,05,16,11,23,20.60
2008,05,16,11,24,20.60
2008,05,16,11,25,20.70
2008,05,16,11,26,20.70
2008,05,16,11,27,20.60
2008,05,16,11,28,20.60
2008,05,16,11,29,20.70
2008,05,16,11,30,20.70
2008,05,16,11,31,20.70
2008,05,16,11,32,20.70
2008,05,16,11,33,20.80
2008,05,16,11,34,20.90
2008,05,16,11,35,20.90
2008,05,16,11,36,21.00
2008,05,16,11,37,21.10
2008,05,16,11,38,21.20
2008,05,16,11,39,21.30
2008,05,16,11,40,21.30
2008,05,16,11,41,21.30
2008,05,16,11,42,21.40
2008,05,16,11,43,21.40
2008,05,16,11,44,21.40
2008,05,16,11,45,21.50
2008,05,16,11,46,21.60
2008,05,16,11,47,21.60
2008,05,16,11,48,21.70
2008,05,16,11,49,21.70
2008,05,16,11,50,21.80
2008,05,16,11,51,21.80
2008,05,16,11,52,21.90
2008,05,16,11,53,22.00
2008,05,16,11,54,22.10
2008,05,16,11,55,22.20
2008,05,16,11,56,22.20
2008,05,16,11,57,22.20
2008,05,16,11,58,22.20
2008,05,16,11,59,22.20
2008,05,16,12,00,22.30
2008,05,16,12,01,22.30
2008,05,16,12,02,22.30
2008,05,16,12,03,22.40
2008,05,16,12,04,22.40
2008,05,16,12,05,22.40
2008,05,16,12,06,22.40
2008,05,16,12,07,22.40
2008,05,16,12,08,22.40
2008,05,16,12,09,22.40
2008,05,16,12,10,22.40
2008,05,16,12,11,22.40
2008,05,16,12,12,22.40
2008,05,16,12,13,22.40
2008,05,16,12,14,22.40
2008,05,16,12,15,22.40
2008,05,16,12,16,22.50
2008,05,16,12,17,22.50
2008,05,16,12,18,22.50
2008,05,16,12,19,22.50
2008,05,16,12,20,22.60
2008,05,16,12,21,22.60
2008,05,16,12,22,22.60
2008,05,16,12,23,22.60
2008,05,16,12,24,22.70
2008,05,16,12,25,22.70
2008,05,16,12,26,22.70
2008,05,16,12,27,22.60
2008,05,16,12,28,22.60
2008,05,16,12,29,22.70
2008,05,16,12,30,22.80
2008,05,16,12,31,22.80
2008,05,16,12,32,22.90
2008,05,16,12,33,22.90
2008,05,16,12,34,22.90
2008,05,16,12,35,22.90
2008,05,16,12,36,22.90
2008,05,16,12,37,22.80
2008,05,16,12,38,22.80
2008,05,16,12,39,22.70
2008,05,16,12,40,22.70
2008,05,16,12,41,22.60
2008,05,16,12,42,22.60
2008,05,16,12,43,22.60
2008,05,16,12,44,22.60
2008,05,16,12,45,22.70
2008,05,16,12,46,22.70
2008,05,16,12,47,22.80
2008,05,16,12,48,22.80
2008,05,16,12,49,22.80
2008,05,16,12,50,22.80
2008,05,16,12,51,22.80
2008,05,16,12,52,22.80
2008,05,16,12,53,22.80
2008,05,16,12,54,22.80
2008,05,16,12,55,22.80
2008,05,16,12,56,22.90
2008,05,16,12,57,23.00
2008,05,16,12,58,23.10
2008,05,16,12,59,23.20
2008,05,16,13,00,23.30
2008,05,16,13,01,23.40
2008,05,16,13,02,23.50
2008,05,16,13,03,23.60
2008,05,16,13,04,23.70
2008,05,16,13,05,23.70
2008,05,16,13,06,23.70
2008,05,16,13,07,23.70
2008,05,16,13,08,23.70
2008,05,16,13,09,23.70
2008,05,16,13,10,23.70
2008,05,16,13,11,23.80
2008,05,16,13,12,23.80
2008,05,16,13,13,23.80
2008,05,16,13,14,23.80
2008,05,16,13,15,23.80
2008,05,16,13,16,23.90
2008,05,16,13,17,24.00
2008,05,16,13,18,24.10
2008,05,16,13,19,24.20
2008,05,16,13,20,24.30
2008,05,16,13,21,24.30
2008,05,16,13,22,24.30
2008,05,16,13,23,24.20
2008,05,16,13,24,24.20
2008,05,16,13,25,24.20
2008,05,16,13,26,24.20
2008,05,16,13,27,24.30
2008,05,16,13,28,24.30
2008,05,16,13,29,24.30
2008,05,16,13,30,24.30
2008,05,16,13,31,24.20
2008,05,16,13,32,24.20
2008,05,16,13,33,24.20
2008,05,16,13,34,24.30
2008,05,16,13,35,24.40
2008,05,16,13,36,24.50
2008,05,16,13,37,24.50
2008,05,16,13,38,24.50
2008,05,16,13,39,24.50
2008,05,16,13,40,24.50
2008,05,16,13,41,24.50
2008,05,16,13,42,24.50
2008,05,16,13,43,24.50
2008,05,16,13,44,24.50
2008,05,16,13,45,24.50
2008,05,16,13,46,24.60
2008,05,16,13,47,24.60
2008,05,16,13,48,24.60
2008,05,16,13,49,24.60
2008,05,16,13,50,24.70
2008,05,16,13,51,24.80
2008,05,16,13,52,24.80
2008,05,16,13,53,24.90
2008,05,16,13,54,24.90
2008,05,16,13,55,24.90
2008,05,16,13,56,24.90
2008,05,16,13,57,25.00
2008,05,16,13,58,25.00
2008,05,16,13,59,25.00
2008,05,16,14,00,25.00
2008,05,16,14,01,24.90
2008,05,16,14,02,24.90
2008,05,16,14,03,24.80
2008,05,16,14,04,24.80
2008,05,16,14,05,24.80
2008,05,16,14,06,24.70
2008,05,16,14,07,24.70
2008,05,16,14,08,24.60
2008,05,16,14,09,24.50
2008,05,16,14,10,24.40
2008,05,16,14,11,24.30
2008,05,16,14,12,24.30
2008,05,16,14,13,24.30
2008,05,16,14,14,24.30
2008,05,16,14,15,24.30
2008,05,16,14,16,24.40
2008,05,16,14,17,24.40
2008,05,16,14,18,24.40
2008,05,16,14,19,24.30
2008,05,16,14,20,24.30
2008,05,16,14,21,24.40
2008,05,16,14,22,24.40
2008,05,16,14,23,24.40
2008,05,16,14,24,24.50
2008,05,16,14,25,24.60
2008,05,16,14,26,24.60
2008,05,16,14,27,24.60
2008,05,16,14,28,24.60
2008,05,16,14,29,24.70
2008,05,16,14,30,24.80
2008,05,16,14,31,24.90
2008,05,16,14,32,25.00
2008,05,16,14,33,25.10
2008,05,16,14,34,25.20
2008,05,16,14,35,25.20
2008,05,16,14,36,25.20
2008,05,16,14,37,25.20
2008,05,16,14,38,25.20
2008,05,16,14,39,25.20
2008,05,16,14,40,25.30
2008,05,16,14,41,25.30
2008,05,16,14,42,25.40
2008,05,16,14,43,25.40
2008,05,16,14,44,25.30
2008,05,16,14,45,25.30
2008,05,16,14,46,25.30
2008,05,16,14,47,25.40
2008,05,16,14,48,25.50
2008,05,16,14,49,25.50
2008,05,16,14,50,25.60
2008,05,16,14,51,25.50
2008,05,16,14,52,25.50
2008,05,16,14,53,25.50
2008,05,16,14,54,25.60
2008,05,16,14,55,25.60
2008,05,16,14,56,25.60
2008,05,16,14,57,25.60
2008,05,16,14,58,25.60
2008,05,16,14,59,25.60
2008,05,16,15,00,25.60
2008,05,16,15,01,25.60
2008,05,16,15,02,25.60
2008,05,16,15,03,25.50
2008,05,16,15,04,25.50
2008,05,16,15,05,25.40
2008,05,16,15,06,25.30
2008,05,16,15,07,25.30
2008,05,16,15,08,25.30
2008,05,16,15,09,25.20
2008,05,16,15,10,25.20
2008,05,16,15,11,25.20
2008,05,16,15,12,25.20
2008,05,16,15,13,25.20
2008,05,16,15,14,25.20
2008,05,16,15,15,25.30
2008,05,16,15,16,25.40
2008,05,16,15,17,25.50
2008,05,16,15,18,25.60
2008,05,16,15,19,25.80
2008,05,16,15,20,25.90
2008,05,16,15,21,25.90
2008,05,16,15,22,25.90
2008,05,16,15,23,26.10
2008,05,16,15,24,26.20
2008,05,16,15,25,26.20
2008,05,16,15,26,26.30
2008,05,16,15,27,26.30
2008,05,16,15,28,26.30
2008,05,16,15,29,26.30
2008,05,16,15,30,26.40
2008,05,16,15,31,26.40
2008,05,16,15,32,26.30
2008,05,16,15,33,26.10
2008,05,16,15,34,26.10
2008,05,16,15,35,26.10
2008,05,16,15,36,26.10
2008,05,16,15,37,26.10
2008,05,16,15,38,26.20
2008,05,16,15,39,26.30
2008,05,16,15,40,26.30
2008,05,16,15,41,26.40
2008,05,16,15,42,26.30
2008,05,16,15,43,26.30
2008,05,16,15,44,26.30
2008,05,16,15,45,26.40
2008,05,16,15,46,26.40
2008,05,16,15,47,26.50
2008,05,16,15,48,26.60
2008,05,16,15,49,26.60
2008,05,16,15,50,26.70
2008,05,16,15,51,26.70
2008,05,16,15,52,26.80
2008,05,16,15,53,26.80
2008,05,16,15,54,26.90
2008,05,16,15,55,26.90
2008,05,16,15,56,26.90
2008,05,16,15,57,26.80
2008,05,16,15,58,26.80
2008,05,16,15,59,26.70
2008,05,16,16,00,26.70
2008,05,16,16,01,26.70
2008,05,16,16,02,26.80
2008,05,16,16,03,26.80
2008,05,16,16,04,26.90
2008,05,16,16,05,27.00
2008,05,16,16,06,27.10
2008,05,16,16,07,27.10
2008,05,16,16,08,27.10
2008,05,16,16,09,27.00
2008,05,16,16,10,26.80
2008,05,16,16,11,26.60
2008,05,16,16,12,26.50
2008,05,16,16,13,26.40
2008,05,16,16,14,26.40
2008,05,16,16,15,26.50
2008,05,16,16,16,26.50
2008,05,16,16,17,26.60
2008,05,16,16,18,26.60
2008,05,16,16,19,26.60
2008,05,16,16,20,26.60
2008,05,16,16,21,26.60
2008,05,16,16,22,26.60
2008,05,16,16,23,26.60
2008,05,16,16,24,26.60
2008,05,16,16,25,26.60
2008,05,16,16,26,26.50
2008,05,16,16,27,26.50
2008,05,16,16,28,26.60
2008,05,16,16,29,26.60
2008,05,16,16,30,26.70
2008,05,16,16,31,26.70
2008,05,16,16,32,26.80
2008,05,16,16,33,26.80
2008,05,16,16,34,26.80
2008,05,16,16,35,26.80
2008,05,16,16,36,26.90
2008,05,16,16,37,27.00
2008,05,16,16,38,27.10
2008,05,16,16,39,27.20
2008,05,16,16,40,27.20
2008,05,16,16,41,27.30
2008,05,16,16,42,27.30
2008,05,16,16,43,27.40
2008,05,16,16,44,27.50
2008,05,16,16,45,27.50
2008,05,16,16,46,27.60
2008,05,16,16,47,27.60
2008,05,16,16,48,27.60
2008,05,16,16,49,27.70
2008,05,16,16,50,27.70
2008,05,16,16,51,27.80
2008,05,16,16,52,27.90
2008,05,16,16,53,28.00
2008,05,16,16,54,28.00
2008,05,16,16,55,28.00
2008,05,16,16,56,27.90
2008,05,16,16,57,27.90
2008,05,16,16,58,27.90
2008,05,16,16,59,27.80
2008,05,16,17,00,27.70
2008,05,16,17,01,27.60
2008,05,16,17,02,27.50
2008,05,16,17,03,27.40
2008,05,16,17,04,27.40
2008,05,16,17,05,27.40
2008,05,16,17,06,27.40
2008,05,16,17,07,27.50
2008,05,16,17,08,27.50
2008,05,16,17,09,27.50
2008,05,16,17,10,27.50
2008,05,16,17,11,27.50
2008,05,16,17,12,27.50
2008,05,16,17,13,27.40
2008,05,16,17,14,27.40
2008,05,16,17,15,27.30
2008,05,16,17,16,27.30
2008,05,16,17,17,27.30
2008,05,16,17,18,27.30
2008,05,16,17,19,27.30
2008,05,16,17,20,27.40
2008,05,16,17,21,27.40
2008,05,16,17,22,27.50
2008,05,16,17,23,27.60
2008,05,16,17,24,27.60
2008,05,16,17,25,27.70
2008,05,16,17,26,27.70
2008,05,16,17,27,27.80
2008,05,16,17,28,27.80
2008,05,16,17,29,27.80
2008,05,16,17,30,27.80
2008,05,16,17,31,27.70
2008,05,16,17,32,27.60
2008,05,16,17,33,27.60
2008,05,16,17,34,27.60
2008,05,16,17,35,27.70
2008,05,16,17,36,27.70